Regional Weather Roundup
Issued by NWS Midland/Odessa, TX

Skip options and go directly to product.
Home | Oldest Version | Previous Version | Current Version | All | Graphics & Text | Save Text | Print | Product List | Glossary On

Skip product version selection by date and time.   
895
ASUS44 KMAF 110601
RWRMAF
MIDLAND AREA WEATHER ROUNDUP
NATIONAL WEATHER SERVICE MIDLAND TX
1200 AM CST SUN DEC 11 2016

...IN SOUTHWEST TEXAS AND SOUTHEAST NEW MEXICO...

CITY           SKY/WX    TMP DP  RH WIND       PRES   REMARKS
ALPINE         CLEAR     49  41  74 S7        30.18S
ANDREWS        FAIR      41  41 100 S13       29.99S WCI  34
ARTESIA        CLEAR     48  34  57 SE7       29.95F
BIG SPRING     MOCLDY    43  42  95 S20       30.03F WCI  35
CARLSBAD       CLOUDY    49  37  63 S7        29.96S
DRYDEN           N/A     43  42  97 SE3       30.11F
FORT STOCKTON  NOT AVBL
GUAD PASS      CLOUDY    44  38  79 SW22      30.08S WCI  35
HOBBS          CLOUDY    39  39 100 SW10      29.99S WCI  32
MARFA          CLEAR     32  30  92 N6        30.17F WCI  26
MIDLAND AIRPK  CLOUDY    44  39  85 S9        30.01F WCI  39
MIDLAND INTL   CLOUDY    43  38  82 S9        30.01F WCI  38
ODESSA         CLOUDY    44  38  79 SW13      30.01F WCI  38
PECOS          CLOUDY    38  37  95 E5        30.02S WCI  34
PRESIDIO       FAIR      48  41  76 N8        30.11S
SEMINOLE       CLOUDY    37  36  97 SW5       29.98F WCI  34
SNYDER         CLOUDY    45  43  94 S14G23    30.00F WCI  38
WINK           CLOUDY    39  39 100 S6        30.01S WCI  35
$$
...OTHER STATIONS IN TEXAS...

CITY           SKY/WX    TMP DP  RH WIND       PRES   REMARKS
ABILENE        CLOUDY    52  49  89 S23G37    30.01F
AMARILLO       CLOUDY    49  35  58 SW20G26   29.80F
AUSTIN         DRIZZLE   51  51 100 CALM      30.18F FOG
BROWNSVILLE    CLOUDY    54  49  83 W6        30.19F
CORPUS CHRISTI MOCLDY    56  56 100 SW6       30.16F
DALLAS FTW     CLOUDY    49  36  61 S20G26    30.11F
DEL RIO        CLOUDY    46  45  96 SE8       30.16F
EL PASO        PTCLDY    47  36  65 S8        30.09R
HOUSTON INT    CLOUDY    52  41  66 E8        30.22F
LUBBOCK        CLOUDY    45  39  79 SW20      29.92F WCI  37
SAN ANGELO     CLOUDY    52  49  89 S22G32    30.06F
SAN ANTONIO    DRZL/FOG  49  47  93 CALM      30.18F VSB 1/2
WACO           CLOUDY    49  45  86 S18       30.17F
WICHITA FALLS  NOT AVBL
$$
...OTHER LOCATIONS IN NEW MEXICO...

CITY           SKY/WX    TMP DP  RH WIND       PRES   REMARKS
ALAMAGORDO     NOT AVBL
ALBUQUERQUE    CLOUDY    37  30  75 SE7       30.04S WCI  32
CANNON AFB     NOT AVBL
CLOVIS         CLOUDY    45  34  65 W17       29.90F WCI  37
HOLLOMAN AFB   NOT AVBL
ROSWELL        CLOUDY    32  28  85 CALM      29.93F
RUIDOSO        CLOUDY    37  25  60 CALM      30.06F
SANTA FE       CLOUDY    34  26  72 N6        30.02S WCI  29
TRUTH OR CONSE PTCLDY    43  30  60 CALM      30.07R
TUCUMCARI      CLOUDY    50  29  44 SW22G28   29.80F
$$